HAZ6828 ZPPP-ZSHC

Flight info

Callsign HAZ6828
Flight time 2h 23m
Altitude 39100
Route NODIB W137 LPS A581 IDGAG W80 XSH DCT JDZ DCT TXN G204 OREXA OREXA81
Aircraft A339/H-SADE1E2E3GHIJ3J5M1P2RWXY/LB2D1

Departure

Time 2026-05-04 13:37
Airport Kunming Changshui International Airport (ZPPP)

Arrival

Time 2026-05-04 16:00
Airport Hangzhou Xiaoshan International Airport (ZSHC)
Time Latitude Longitude Altitude Speed Heading
2026-05-04 11:43 25.10932 102.93913 6922 ft 0 kts 38°
2026-05-04 13:19 25.10922 102.93905 6920 ft 2 kts 38°
2026-05-04 13:19 25.10910 102.93895 6920 ft 1 kts 38°
2026-05-04 13:20 25.10902 102.93888 6920 ft 2 kts 34°
2026-05-04 13:20 25.10889 102.93881 6920 ft 2 kts 17°
2026-05-04 13:20 25.10875 102.93877 6920 ft 2 kts
2026-05-04 13:20 25.10860 102.93877 6920 ft 2 kts 351°
2026-05-04 13:21 25.10845 102.93882 6920 ft 2 kts 337°
2026-05-04 13:21 25.10832 102.93890 6920 ft 2 kts 324°
2026-05-04 13:21 25.10821 102.93900 6920 ft 1 kts 311°
2026-05-04 13:21 25.10817 102.93904 6920 ft 0 kts 308°
2026-05-04 13:22 25.10817 102.93905 6920 ft 0 kts 308°
2026-05-04 13:25 25.10817 102.93904 6920 ft 0 kts 308°
2026-05-04 13:25 25.10820 102.93901 6920 ft 1 kts 308°
2026-05-04 13:25 25.10827 102.93891 6920 ft 2 kts 308°
2026-05-04 13:25 25.10845 102.93866 6920 ft 11 kts 309°
2026-05-04 13:26 25.10905 102.93780 6920 ft 14 kts 307°
2026-05-04 13:26 25.10963 102.93697 6920 ft 13 kts 310°
2026-05-04 13:26 25.11029 102.93625 6920 ft 13 kts 318°
2026-05-04 13:26 25.11086 102.93549 6920 ft 12 kts 304°
2026-05-04 13:27 25.11133 102.93468 6920 ft 12 kts 304°
2026-05-04 13:27 25.11185 102.93394 6920 ft 12 kts 308°
2026-05-04 13:27 25.11237 102.93320 6920 ft 12 kts 307°
2026-05-04 13:27 25.11288 102.93246 6920 ft 11 kts 307°
2026-05-04 13:28 25.11338 102.93175 6920 ft 11 kts 309°
2026-05-04 13:28 25.11389 102.93105 6920 ft 11 kts 309°
2026-05-04 13:28 25.11445 102.93041 6920 ft 11 kts 333°
2026-05-04 13:28 25.11497 102.93067 6920 ft 7 kts 47°
2026-05-04 13:29 25.11542 102.93102 6920 ft 8 kts 31°
2026-05-04 13:29 25.11593 102.93133 6920 ft 8 kts 28°
2026-05-04 13:29 25.11645 102.93167 6920 ft 8 kts 36°
2026-05-04 13:29 25.11694 102.93211 6920 ft 9 kts 40°
2026-05-04 13:30 25.11742 102.93256 6920 ft 9 kts 41°
2026-05-04 13:30 25.11793 102.93304 6920 ft 9 kts 41°
2026-05-04 13:30 25.11844 102.93353 6920 ft 9 kts 39°
2026-05-04 13:30 25.11900 102.93399 6920 ft 10 kts 36°
2026-05-04 13:31 25.11956 102.93447 6920 ft 10 kts 39°
2026-05-04 13:31 25.12012 102.93498 6920 ft 10 kts 39°
2026-05-04 13:31 25.12069 102.93547 6920 ft 10 kts 37°
2026-05-04 13:31 25.12128 102.93596 6920 ft 10 kts 38°
2026-05-04 13:32 25.12186 102.93647 6920 ft 10 kts 39°
2026-05-04 13:32 25.12244 102.93700 6920 ft 10 kts 40°
2026-05-04 13:32 25.12302 102.93752 6920 ft 10 kts 39°
2026-05-04 13:32 25.12362 102.93803 6920 ft 10 kts 37°
2026-05-04 13:33 25.12427 102.93857 6920 ft 12 kts 38°
2026-05-04 13:33 25.12498 102.93919 6920 ft 13 kts 39°
2026-05-04 13:33 25.12576 102.93989 6920 ft 14 kts 39°
2026-05-04 13:33 25.12658 102.94062 6920 ft 15 kts 39°
2026-05-04 13:34 25.12748 102.94139 6920 ft 16 kts 37°
2026-05-04 13:34 25.12841 102.94217 6920 ft 17 kts 38°
2026-05-04 13:34 25.12944 102.94258 6920 ft 15 kts 339°
2026-05-04 13:34 25.13009 102.94170 6920 ft 12 kts 276°
2026-05-04 13:35 25.12969 102.94090 6920 ft 9 kts 223°
2026-05-04 13:35 25.12960 102.94081 6920 ft 0 kts 221°
2026-05-04 13:36 25.12892 102.94022 6920 ft 36 kts 218°
2026-05-04 13:36 25.12547 102.93724 6920 ft 88 kts 218°
2026-05-04 13:36 25.11941 102.93195 6920 ft 132 kts 218°
2026-05-04 13:36 25.11119 102.92481 6963 ft 164 kts 220°
2026-05-04 13:37 25.10237 102.91658 7256 ft 168 kts 219°
2026-05-04 13:37 25.09397 102.90691 7508 ft 181 kts 232°
2026-05-04 13:37 25.08628 102.89528 7754 ft 197 kts 234°
2026-05-04 13:37 25.08076 102.88671 7916 ft 209 kts 234°
2026-05-04 13:38 25.06887 102.86850 8224 ft 233 kts 233°
2026-05-04 13:38 25.05655 102.85609 8460 ft 249 kts 204°
2026-05-04 13:38 25.03919 102.85387 8799 ft 265 kts 168°
2026-05-04 13:38 25.02242 102.86333 9364 ft 274 kts 145°
2026-05-04 13:39 25.00745 102.87633 9922 ft 280 kts 143°
2026-05-04 13:39 24.99198 102.88974 10483 ft 284 kts 145°
2026-05-04 13:39 24.97596 102.90301 11041 ft 289 kts 146°
2026-05-04 13:39 24.95956 102.91610 11582 ft 294 kts 147°
2026-05-04 13:40 24.94276 102.92921 12107 ft 299 kts 148°
2026-05-04 13:40 24.92573 102.94235 12614 ft 304 kts 148°
2026-05-04 13:40 24.90810 102.95587 13122 ft 309 kts 148°
2026-05-04 13:40 24.89030 102.96947 13611 ft 314 kts 148°
2026-05-04 13:41 24.87231 102.98321 14093 ft 318 kts 148°
2026-05-04 13:41 24.85413 102.99726 14602 ft 322 kts 144°
2026-05-04 13:41 24.83948 103.01613 15084 ft 332 kts 116°
2026-05-04 13:42 24.83934 103.06519 16017 ft 333 kts 58°
2026-05-04 13:42 24.85387 103.08466 16301 ft 334 kts 32°
2026-05-04 13:42 24.87347 103.09912 16578 ft 345 kts 28°
2026-05-04 13:42 24.89397 103.11391 16825 ft 361 kts 29°
2026-05-04 13:43 24.91533 103.12965 17065 ft 375 kts 30°
2026-05-04 13:43 24.93730 103.14614 17256 ft 391 kts 30°
2026-05-04 13:43 24.96040 103.16364 17291 ft 411 kts 30°
2026-05-04 13:43 24.98456 103.18206 17286 ft 431 kts 31°
2026-05-04 13:44 25.00956 103.20119 17303 ft 448 kts 31°
2026-05-04 13:44 25.03549 103.22110 17861 ft 450 kts 31°
2026-05-04 13:44 25.06057 103.24038 18457 ft 430 kts 31°
2026-05-04 13:44 25.08475 103.25911 18657 ft 420 kts 31°
2026-05-04 13:45 25.10872 103.27748 18900 ft 425 kts 30°
2026-05-04 13:45 25.13315 103.29623 19515 ft 426 kts 30°
2026-05-04 13:45 25.15754 103.31498 20119 ft 427 kts 30°
2026-05-04 13:45 25.18176 103.33363 20642 ft 430 kts 30°
2026-05-04 13:46 25.20647 103.35268 21149 ft 433 kts 31°
2026-05-04 13:46 25.23123 103.37180 21641 ft 436 kts 30°
2026-05-04 13:46 25.25605 103.39098 22112 ft 439 kts 31°
2026-05-04 13:46 25.28139 103.41057 22573 ft 442 kts 31°
2026-05-04 13:47 25.30645 103.42998 23011 ft 446 kts 30°
2026-05-04 13:47 25.33187 103.44970 23447 ft 449 kts 30°
2026-05-04 13:47 25.35780 103.46982 23883 ft 452 kts 30°
2026-05-04 13:47 25.38344 103.48972 24320 ft 455 kts 30°
2026-05-04 13:48 25.40930 103.50979 24747 ft 458 kts 30°
2026-05-04 13:48 25.43540 103.53007 25172 ft 460 kts 30°
2026-05-04 13:48 25.46172 103.55051 25576 ft 464 kts 30°
2026-05-04 13:48 25.48838 103.57121 25974 ft 466 kts 30°
2026-05-04 13:49 25.51420 103.59358 26368 ft 474 kts 36°
2026-05-04 13:49 25.53747 103.61944 26744 ft 483 kts 43°
2026-05-04 13:49 25.55814 103.64903 27120 ft 491 kts 50°
2026-05-04 13:49 25.57699 103.68072 27466 ft 495 kts 52°
2026-05-04 13:50 25.59548 103.71292 27793 ft 498 kts 53°
2026-05-04 13:50 25.61406 103.74550 28351 ft 495 kts 52°
2026-05-04 13:50 25.63225 103.77734 28971 ft 491 kts 52°
2026-05-04 13:50 25.65058 103.80919 29351 ft 492 kts 52°
2026-05-04 13:51 25.66888 103.84083 29633 ft 495 kts 52°
2026-05-04 13:51 25.68768 103.87327 29903 ft 499 kts 52°
2026-05-04 13:51 25.70651 103.90577 30179 ft 502 kts 51°
2026-05-04 13:51 25.72534 103.93831 30454 ft 505 kts 52°
2026-05-04 13:52 25.76337 104.00416 31010 ft 510 kts 52°
2026-05-04 13:52 25.78240 104.03715 31267 ft 512 kts 52°
2026-05-04 13:52 25.80170 104.07056 31597 ft 513 kts 51°
2026-05-04 13:53 25.82095 104.10346 31986 ft 511 kts 51°
2026-05-04 13:53 25.84051 104.13666 32371 ft 510 kts 51°
2026-05-04 13:53 25.85972 104.16924 32756 ft 510 kts 50°
2026-05-04 13:54 25.89826 104.23476 33636 ft 508 kts 51°
2026-05-04 13:54 25.91749 104.26758 34117 ft 506 kts 51°
2026-05-04 13:54 25.95552 104.33260 35036 ft 502 kts 51°
2026-05-04 13:55 25.97450 104.36508 35486 ft 500 kts 51°
2026-05-04 13:55 26.01458 104.42719 36270 ft 492 kts 44°
2026-05-04 13:55 26.03667 104.45597 36592 ft 489 kts 40°
2026-05-04 13:56 26.06005 104.48310 36909 ft 485 kts 37°
2026-05-04 13:56 26.08460 104.50853 37220 ft 481 kts 33°
2026-05-04 13:56 26.13566 104.55624 37358 ft 480 kts 32°
2026-05-04 13:57 26.16140 104.57994 37356 ft 479 kts 32°
2026-05-04 13:58 26.26416 104.67516 37359 ft 481 kts 32°
2026-05-04 13:58 26.34118 104.74696 37356 ft 481 kts 32°
2026-05-04 13:59 26.39226 104.79465 37359 ft 481 kts 32°
2026-05-04 14:00 26.46923 104.86660 37355 ft 482 kts 32°
2026-05-04 14:00 26.54640 104.93890 37355 ft 482 kts 32°
2026-05-04 14:01 26.59654 104.98903 37353 ft 489 kts 38°
2026-05-04 14:02 26.65993 105.07942 37350 ft 503 kts 52°
2026-05-04 14:02 26.69233 105.14932 37348 ft 511 kts 59°
2026-05-04 14:03 26.72127 105.22226 37352 ft 511 kts 60°
2026-05-04 14:03 26.74994 105.29472 37353 ft 511 kts 59°
2026-05-04 14:04 26.79331 105.40343 37334 ft 511 kts 59°
2026-05-04 14:04 26.82219 105.47576 37330 ft 511 kts 59°
2026-05-04 14:05 26.86555 105.58454 37322 ft 512 kts 59°
2026-05-04 14:06 26.89440 105.65713 37315 ft 512 kts 60°
2026-05-04 14:06 26.92330 105.73001 37300 ft 513 kts 60°
2026-05-04 14:07 26.95225 105.80312 37305 ft 514 kts 60°
2026-05-04 14:07 26.98113 105.87621 37292 ft 514 kts 59°
2026-05-04 14:08 27.00990 105.94916 37288 ft 514 kts 59°
2026-05-04 14:08 27.03875 106.02218 37285 ft 514 kts 58°
2026-05-04 14:09 27.08677 106.12875 37284 ft 514 kts 56°
2026-05-04 14:10 27.13660 106.23729 37281 ft 531 kts 56°
2026-05-04 14:10 27.17030 106.31147 37277 ft 534 kts 56°
2026-05-04 14:11 27.20386 106.38544 37272 ft 533 kts 56°
2026-05-04 14:11 27.25427 106.49626 37257 ft 533 kts 56°
2026-05-04 14:12 27.28800 106.57065 37243 ft 534 kts 56°
2026-05-04 14:13 27.33836 106.68212 37236 ft 534 kts 57°
2026-05-04 14:13 27.37179 106.75627 37235 ft 534 kts 57°
2026-05-04 14:14 27.40520 106.83070 37239 ft 533 kts 57°
2026-05-04 14:14 27.45516 106.94256 37239 ft 534 kts 57°
2026-05-04 14:15 27.52222 107.09148 37237 ft 535 kts 56°
2026-05-04 14:16 27.57285 107.20355 37235 ft 536 kts 56°
2026-05-04 14:17 27.62350 107.31581 37233 ft 537 kts 56°
2026-05-04 14:18 27.67407 107.42826 37231 ft 537 kts 56°
2026-05-04 14:19 27.74118 107.57801 37227 ft 538 kts 56°
2026-05-04 14:19 27.77482 107.65340 37233 ft 538 kts 56°
2026-05-04 14:20 27.80832 107.72857 37237 ft 538 kts 57°
2026-05-04 14:20 27.84216 107.80409 37239 ft 538 kts 56°
2026-05-04 14:21 27.89355 107.91614 37224 ft 538 kts 56°
2026-05-04 14:21 27.92798 107.99151 37215 ft 537 kts 56°
2026-05-04 14:22 27.96209 108.06639 37210 ft 538 kts 56°
2026-05-04 14:22 27.99616 108.14136 37206 ft 540 kts 56°
2026-05-04 14:23 28.04754 108.25472 37193 ft 541 kts 56°
2026-05-04 14:24 28.08155 108.32994 37175 ft 541 kts 56°
2026-05-04 14:24 28.11573 108.40575 37177 ft 541 kts 56°
2026-05-04 14:25 28.14994 108.48173 37182 ft 541 kts 56°
2026-05-04 14:25 28.20104 108.59539 37183 ft 540 kts 56°
2026-05-04 14:26 28.23500 108.67115 37190 ft 541 kts 56°
2026-05-04 14:26 28.26888 108.74683 37196 ft 541 kts 56°
2026-05-04 14:27 28.30291 108.82298 37197 ft 543 kts 57°
2026-05-04 14:27 28.33682 108.89918 37189 ft 541 kts 56°
2026-05-04 14:28 28.37079 108.97553 37176 ft 541 kts 56°
2026-05-04 14:28 28.40464 109.05172 37159 ft 542 kts 57°
2026-05-04 14:29 28.47216 109.20438 37148 ft 542 kts 56°
2026-05-04 14:30 28.50577 109.28066 37147 ft 542 kts 56°
2026-05-04 14:31 28.55619 109.39555 37144 ft 542 kts 57°
2026-05-04 14:32 28.61617 109.55422 37148 ft 549 kts 63°
2026-05-04 14:32 28.64340 109.63487 37148 ft 549 kts 62°
2026-05-04 14:33 28.67165 109.71582 37139 ft 552 kts 62°
2026-05-04 14:33 28.70099 109.79687 37136 ft 559 kts 61°
2026-05-04 14:34 28.73060 109.87914 37148 ft 561 kts 62°
2026-05-04 14:34 28.75989 109.96100 37168 ft 561 kts 62°
2026-05-04 14:34 28.77459 110.00221 37398 ft 559 kts 62°
2026-05-04 14:35 28.78899 110.04287 37473 ft 561 kts 62°
2026-05-04 14:35 28.80378 110.08395 37289 ft 561 kts 62°
2026-05-04 14:35 28.81854 110.12521 37214 ft 562 kts 62°
2026-05-04 14:36 28.84780 110.20802 37168 ft 563 kts 62°
2026-05-04 14:36 28.87690 110.29053 37154 ft 564 kts 62°
2026-05-04 14:37 28.90621 110.37350 37153 ft 565 kts 62°
2026-05-04 14:37 28.93529 110.45612 37146 ft 565 kts 62°
2026-05-04 14:38 28.96459 110.53950 37148 ft 566 kts 62°
2026-05-04 14:38 28.99362 110.62238 37149 ft 565 kts 62°
2026-05-04 14:39 29.02291 110.70609 37133 ft 566 kts 62°
2026-05-04 14:39 29.05221 110.78914 37133 ft 567 kts 62°
2026-05-04 14:40 29.09663 110.91417 37129 ft 569 kts 62°
2026-05-04 14:40 29.12615 110.99783 37132 ft 567 kts 62°
2026-05-04 14:41 29.15555 111.08130 37128 ft 567 kts 62°
2026-05-04 14:42 29.21406 111.24805 37114 ft 567 kts 62°
2026-05-04 14:42 29.24334 111.33170 37109 ft 567 kts 62°
2026-05-04 14:43 29.27254 111.41544 37105 ft 568 kts 62°
2026-05-04 14:43 29.30168 111.49925 37105 ft 568 kts 62°
2026-05-04 14:44 29.33082 111.58309 37100 ft 567 kts 62°
2026-05-04 14:44 29.36415 111.66372 37098 ft 559 kts 54°
2026-05-04 14:45 29.40479 111.73951 37092 ft 554 kts 50°
2026-05-04 14:45 29.44732 111.81304 37092 ft 554 kts 49°
2026-05-04 14:46 29.48950 111.88620 37086 ft 556 kts 50°
2026-05-04 14:46 29.53189 111.96040 37084 ft 556 kts 50°
2026-05-04 14:47 29.57403 112.03447 37080 ft 556 kts 50°
2026-05-04 14:47 29.61613 112.10862 37084 ft 555 kts 50°
2026-05-04 14:48 29.65843 112.18317 37084 ft 557 kts 50°
2026-05-04 14:48 29.70058 112.25780 37086 ft 555 kts 50°
2026-05-04 14:49 29.74241 112.33186 37087 ft 556 kts 50°
2026-05-04 14:49 29.78431 112.40640 37083 ft 555 kts 50°
2026-05-04 14:50 29.82610 112.48099 37085 ft 556 kts 50°
2026-05-04 14:50 29.86782 112.55573 37092 ft 557 kts 50°
2026-05-04 14:51 29.90979 112.63104 37099 ft 557 kts 50°
2026-05-04 14:51 29.95147 112.70589 37097 ft 558 kts 51°
2026-05-04 14:52 29.99342 112.78142 37099 ft 560 kts 51°
2026-05-04 14:52 30.03530 112.85698 37107 ft 559 kts 51°
2026-05-04 14:53 30.07640 112.93141 37104 ft 547 kts 51°
2026-05-04 14:53 30.11722 113.00529 37102 ft 546 kts 51°
2026-05-04 14:54 30.15798 113.07915 37118 ft 546 kts 51°
2026-05-04 14:54 30.19850 113.15282 37118 ft 546 kts 51°
2026-05-04 14:55 30.23959 113.22707 37116 ft 546 kts 50°
2026-05-04 14:55 30.28070 113.30005 37122 ft 545 kts 50°
2026-05-04 14:56 30.32195 113.37346 37124 ft 545 kts 51°
2026-05-04 14:56 30.36296 113.44679 37121 ft 544 kts 51°
2026-05-04 14:57 30.40401 113.52035 37117 ft 544 kts 51°
2026-05-04 14:57 30.44493 113.59390 37124 ft 543 kts 51°
2026-05-04 14:58 30.48576 113.66737 37119 ft 543 kts 52°
2026-05-04 14:58 30.52600 113.74081 37124 ft 546 kts 55°
2026-05-04 14:59 30.55604 113.82268 37122 ft 556 kts 71°
2026-05-04 14:59 30.56822 113.91081 37120 ft 561 kts 87°
2026-05-04 15:00 30.56726 113.95621 37115 ft 562 kts 95°
2026-05-04 15:00 30.55813 114.04553 37120 ft 561 kts 98°
2026-05-04 15:01 30.54417 114.18003 37117 ft 562 kts 96°
2026-05-04 15:01 30.53576 114.26941 37126 ft 554 kts 96°
2026-05-04 15:02 30.53151 114.31344 37119 ft 541 kts 96°
2026-05-04 15:02 30.52737 114.35626 37127 ft 532 kts 96°
2026-05-04 15:02 30.51898 114.44142 37133 ft 533 kts 97°
2026-05-04 15:03 30.51054 114.52637 37122 ft 533 kts 97°
2026-05-04 15:03 30.50208 114.61161 37128 ft 534 kts 97°
2026-05-04 15:04 30.49352 114.69692 37128 ft 534 kts 97°
2026-05-04 15:04 30.48493 114.78220 37138 ft 534 kts 97°
2026-05-04 15:05 30.47626 114.86716 37135 ft 535 kts 97°
2026-05-04 15:05 30.46756 114.95240 37137 ft 531 kts 98°
2026-05-04 15:06 30.46328 114.99432 37137 ft 518 kts 97°
2026-05-04 15:06 30.45907 115.03497 37129 ft 505 kts 97°
2026-05-04 15:07 30.44660 115.15525 37145 ft 500 kts 98°
2026-05-04 15:07 30.43455 115.23254 37136 ft 497 kts 108°
2026-05-04 15:08 30.41038 115.30698 37132 ft 492 kts 121°
2026-05-04 15:08 30.37576 115.37461 37130 ft 486 kts 129°
2026-05-04 15:09 30.33855 115.43944 37133 ft 486 kts 129°
2026-05-04 15:09 30.30151 115.50458 37133 ft 487 kts 128°
2026-05-04 15:10 30.24584 115.60332 37134 ft 488 kts 128°
2026-05-04 15:11 30.19023 115.70184 37135 ft 489 kts 129°
2026-05-04 15:11 30.15320 115.76740 37141 ft 489 kts 129°
2026-05-04 15:12 30.11637 115.83253 36812 ft 484 kts 129°
2026-05-04 15:12 30.09794 115.86505 36357 ft 484 kts 129°
2026-05-04 15:12 30.07952 115.89758 35853 ft 486 kts 130°
2026-05-04 15:12 30.06092 115.93032 35398 ft 486 kts 130°
2026-05-04 15:13 30.04260 115.96259 35000 ft 484 kts 130°
2026-05-04 15:13 30.02423 115.99493 34421 ft 482 kts 130°
2026-05-04 15:13 30.00579 116.02736 34173 ft 481 kts 131°
2026-05-04 15:13 29.98763 116.05923 33731 ft 480 kts 131°
2026-05-04 15:14 29.96919 116.09159 33258 ft 480 kts 131°
2026-05-04 15:14 29.95095 116.12353 32790 ft 481 kts 131°
2026-05-04 15:14 29.93256 116.15567 32345 ft 480 kts 131°
2026-05-04 15:14 29.91414 116.18786 31894 ft 480 kts 130°
2026-05-04 15:15 29.89581 116.21985 31446 ft 479 kts 130°
2026-05-04 15:15 29.87747 116.25190 30998 ft 478 kts 130°
2026-05-04 15:15 29.85942 116.28344 30559 ft 477 kts 130°
2026-05-04 15:16 29.82293 116.34706 29664 ft 476 kts 129°
2026-05-04 15:16 29.80459 116.37903 29114 ft 476 kts 129°
2026-05-04 15:16 29.76827 116.44227 28035 ft 475 kts 129°
2026-05-04 15:17 29.75011 116.47385 27510 ft 474 kts 129°
2026-05-04 15:17 29.71370 116.53706 26672 ft 473 kts 128°
2026-05-04 15:17 29.69569 116.56831 26670 ft 475 kts 128°
2026-05-04 15:18 29.67739 116.60004 26657 ft 476 kts 129°
2026-05-04 15:18 29.65897 116.63192 26649 ft 477 kts 128°
2026-05-04 15:18 29.64061 116.66368 26654 ft 486 kts 129°
2026-05-04 15:19 29.60270 116.72910 26645 ft 496 kts 129°
2026-05-04 15:19 29.58352 116.76225 26659 ft 496 kts 129°
2026-05-04 15:19 29.54533 116.82818 26653 ft 496 kts 129°
2026-05-04 15:20 29.52626 116.86104 26652 ft 496 kts 129°
2026-05-04 15:20 29.50719 116.89390 26649 ft 496 kts 129°
2026-05-04 15:20 29.48809 116.92677 26644 ft 497 kts 129°
2026-05-04 15:20 29.46893 116.95967 26667 ft 499 kts 129°
2026-05-04 15:21 29.44959 116.99285 26664 ft 499 kts 129°
2026-05-04 15:21 29.43037 117.02583 26651 ft 499 kts 129°
2026-05-04 15:21 29.39334 117.09353 26654 ft 506 kts 120°
2026-05-04 15:22 29.38042 117.13123 26664 ft 513 kts 110°
2026-05-04 15:22 29.37294 117.17101 26662 ft 518 kts 99°
2026-05-04 15:22 29.37526 117.25356 26664 ft 520 kts 78°
2026-05-04 15:23 29.38510 117.29333 26656 ft 519 kts 68°
2026-05-04 15:23 29.39891 117.33142 26671 ft 519 kts 64°
2026-05-04 15:23 29.41346 117.36897 26686 ft 519 kts 64°
2026-05-04 15:23 29.42820 117.40689 26671 ft 517 kts 64°
2026-05-04 15:24 29.45689 117.48253 26688 ft 518 kts 64°
2026-05-04 15:24 29.48495 117.55814 26676 ft 517 kts 65°
2026-05-04 15:25 29.49887 117.59596 26681 ft 516 kts 65°
2026-05-04 15:25 29.51264 117.63348 26502 ft 510 kts 65°
2026-05-04 15:25 29.52639 117.67094 25909 ft 510 kts 65°
2026-05-04 15:26 29.55401 117.74611 24486 ft 510 kts 66°
2026-05-04 15:26 29.56767 117.78346 23904 ft 507 kts 65°
2026-05-04 15:26 29.59473 117.85754 22683 ft 501 kts 66°
2026-05-04 15:27 29.60798 117.89387 22416 ft 490 kts 66°
2026-05-04 15:27 29.63374 117.96471 21564 ft 478 kts 66°
2026-05-04 15:28 29.65922 118.03477 20491 ft 470 kts 66°
2026-05-04 15:28 29.67169 118.06917 20097 ft 463 kts 66°
2026-05-04 15:28 29.69583 118.13583 19796 ft 440 kts 66°
2026-05-04 15:29 29.70760 118.16835 19801 ft 440 kts 66°
2026-05-04 15:30 29.73478 118.30382 19790 ft 442 kts 95°
2026-05-04 15:30 29.72463 118.40918 19801 ft 442 kts 97°
2026-05-04 15:31 29.71796 118.47901 19801 ft 443 kts 96°
2026-05-04 15:31 29.71471 118.51430 19803 ft 443 kts 96°
2026-05-04 15:32 29.70526 118.61732 19794 ft 411 kts 96°
2026-05-04 15:32 29.70614 118.68079 19252 ft 400 kts 72°
2026-05-04 15:33 29.72622 118.73989 18483 ft 394 kts 66°
2026-05-04 15:34 29.75516 118.82708 17415 ft 385 kts 69°
2026-05-04 15:34 29.76411 118.85596 17077 ft 382 kts 69°
2026-05-04 15:34 29.78149 118.91325 16362 ft 376 kts 70°
2026-05-04 15:35 29.79839 118.96957 15656 ft 370 kts 70°
2026-05-04 15:35 29.80669 118.99734 15298 ft 368 kts 70°
2026-05-04 15:35 29.81500 119.02519 14945 ft 365 kts 70°
2026-05-04 15:36 29.83129 119.07989 14257 ft 359 kts 70°
2026-05-04 15:36 29.83930 119.10680 13936 ft 355 kts 70°
2026-05-04 15:36 29.84727 119.13364 13604 ft 352 kts 70°
2026-05-04 15:37 29.85511 119.16006 13271 ft 349 kts 70°
2026-05-04 15:37 29.86294 119.18642 12931 ft 346 kts 70°
2026-05-04 15:37 29.87074 119.21273 12581 ft 344 kts 70°
2026-05-04 15:37 29.87838 119.23851 12245 ft 341 kts 70°
2026-05-04 15:38 29.88596 119.26415 11900 ft 339 kts 70°
2026-05-04 15:38 29.89359 119.28999 11561 ft 337 kts 70°
2026-05-04 15:38 29.90106 119.31529 11223 ft 335 kts 70°
2026-05-04 15:38 29.90851 119.34055 10885 ft 333 kts 70°
2026-05-04 15:39 29.91595 119.36571 10547 ft 330 kts 70°
2026-05-04 15:39 29.92329 119.39062 10207 ft 328 kts 70°
2026-05-04 15:39 29.93759 119.43919 9908 ft 311 kts 70°
2026-05-04 15:40 29.94445 119.46248 9783 ft 303 kts 70°
2026-05-04 15:40 29.95112 119.48520 9646 ft 296 kts 70°
2026-05-04 15:40 29.95763 119.50742 9514 ft 289 kts 70°
2026-05-04 15:40 29.96394 119.52890 9324 ft 284 kts 70°
2026-05-04 15:41 29.97026 119.55043 9065 ft 283 kts 70°
2026-05-04 15:41 29.97659 119.57200 8901 ft 279 kts 69°
2026-05-04 15:41 29.98281 119.59318 8899 ft 283 kts 70°
2026-05-04 15:41 29.98909 119.61466 8894 ft 284 kts 70°
2026-05-04 15:42 29.99541 119.63626 8894 ft 284 kts 70°
2026-05-04 15:42 30.00174 119.65797 8895 ft 284 kts 70°
2026-05-04 15:42 30.00802 119.67945 8890 ft 285 kts 70°
2026-05-04 15:42 30.01437 119.70121 8888 ft 285 kts 70°
2026-05-04 15:43 30.02071 119.72297 8888 ft 285 kts 70°
2026-05-04 15:43 30.02701 119.74454 8885 ft 285 kts 69°
2026-05-04 15:43 30.03383 119.76584 8883 ft 284 kts 66°
2026-05-04 15:43 30.04168 119.78690 8876 ft 283 kts 64°
2026-05-04 15:44 30.05031 119.80705 8702 ft 280 kts 61°
2026-05-04 15:44 30.05924 119.82690 8397 ft 281 kts 61°
2026-05-04 15:44 30.06834 119.84704 8113 ft 280 kts 61°
2026-05-04 15:44 30.07727 119.86682 7905 ft 277 kts 61°
2026-05-04 15:45 30.08621 119.88664 7879 ft 279 kts 62°
2026-05-04 15:45 30.09512 119.90642 7881 ft 280 kts 61°
2026-05-04 15:45 30.10413 119.92646 7881 ft 279 kts 62°
2026-05-04 15:45 30.11315 119.94650 7871 ft 279 kts 61°
2026-05-04 15:46 30.12193 119.96607 7723 ft 276 kts 62°
2026-05-04 15:46 30.13087 119.98596 7410 ft 277 kts 61°
2026-05-04 15:46 30.13968 120.00562 7146 ft 276 kts 61°
2026-05-04 15:46 30.14835 120.02496 6918 ft 273 kts 61°
2026-05-04 15:47 30.15707 120.04437 6872 ft 273 kts 61°
2026-05-04 15:47 30.16588 120.06403 6876 ft 274 kts 61°
2026-05-04 15:47 30.17471 120.08373 6875 ft 275 kts 62°
2026-05-04 15:47 30.18346 120.10330 6870 ft 275 kts 62°
2026-05-04 15:48 30.19222 120.12291 6873 ft 275 kts 62°
2026-05-04 15:48 30.20088 120.14228 6866 ft 275 kts 61°
2026-05-04 15:48 30.21852 120.18181 6870 ft 276 kts 61°
2026-05-04 15:49 30.22727 120.20147 6876 ft 276 kts 61°
2026-05-04 15:49 30.23600 120.22109 6874 ft 275 kts 62°
2026-05-04 15:49 30.24482 120.24096 6867 ft 275 kts 61°
2026-05-04 15:49 30.25348 120.26045 6868 ft 274 kts 61°
2026-05-04 15:50 30.26225 120.28015 6856 ft 274 kts 61°
2026-05-04 15:50 30.27089 120.29958 6872 ft 274 kts 61°
2026-05-04 15:50 30.27965 120.31930 6866 ft 274 kts 61°
2026-05-04 15:50 30.28836 120.33890 6874 ft 274 kts 61°
2026-05-04 15:51 30.29712 120.35862 6878 ft 274 kts 62°
2026-05-04 15:51 30.30569 120.37798 6753 ft 272 kts 62°
2026-05-04 15:51 30.31437 120.39760 6442 ft 273 kts 61°
2026-05-04 15:51 30.32305 120.41723 6166 ft 273 kts 61°
2026-05-04 15:52 30.33170 120.43676 5928 ft 271 kts 61°
2026-05-04 15:52 30.34014 120.45582 5880 ft 270 kts 61°
2026-05-04 15:52 30.34872 120.47520 5868 ft 271 kts 62°
2026-05-04 15:52 30.35730 120.49461 5760 ft 268 kts 61°
2026-05-04 15:53 30.36581 120.51386 5480 ft 269 kts 62°
2026-05-04 15:53 30.37436 120.53320 5193 ft 270 kts 62°
2026-05-04 15:53 30.38286 120.55248 4989 ft 267 kts 62°
2026-05-04 15:53 30.39127 120.57156 4984 ft 265 kts 62°
2026-05-04 15:54 30.39947 120.59020 4980 ft 255 kts 62°
2026-05-04 15:54 30.40733 120.60805 4974 ft 245 kts 62°
2026-05-04 15:54 30.41497 120.62543 4962 ft 234 kts 63°
2026-05-04 15:54 30.41912 120.64294 4932 ft 226 kts 96°
2026-05-04 15:55 30.41300 120.65932 4959 ft 225 kts 135°
2026-05-04 15:55 30.39988 120.66913 4992 ft 227 kts 155°
2026-05-04 15:55 30.38550 120.67695 4973 ft 228 kts 155°
2026-05-04 15:55 30.37055 120.68246 4741 ft 226 kts 183°
2026-05-04 15:56 30.35615 120.67645 4529 ft 221 kts 225°
2026-05-04 15:56 30.34828 120.66183 4344 ft 217 kts 247°
2026-05-04 15:56 30.34240 120.64576 4035 ft 215 kts 246°
2026-05-04 15:56 30.33615 120.62968 3976 ft 219 kts 245°
2026-05-04 15:57 30.32949 120.61381 3908 ft 221 kts 243°
2026-05-04 15:57 30.32256 120.59796 3465 ft 225 kts 242°
2026-05-04 15:57 30.31519 120.58185 2929 ft 229 kts 241°
2026-05-04 15:57 30.30776 120.56528 2203 ft 236 kts 242°
2026-05-04 15:58 30.30059 120.54848 1657 ft 228 kts 242°
2026-05-04 15:58 30.29364 120.53272 1326 ft 213 kts 241°
2026-05-04 15:58 30.28697 120.51791 1031 ft 201 kts 241°
2026-05-04 15:58 30.28086 120.50439 979 ft 180 kts 242°
2026-05-04 15:59 30.27540 120.49191 906 ft 165 kts 241°
2026-05-04 15:59 30.27029 120.48052 770 ft 154 kts 241°
2026-05-04 15:59 30.26544 120.46979 568 ft 149 kts 241°
2026-05-04 15:59 30.26078 120.45940 365 ft 143 kts 242°
2026-05-04 16:00 30.25636 120.44926 232 ft 142 kts 242°
2026-05-04 16:00 30.25177 120.43893 77 ft 144 kts 242°
2026-05-04 16:00 30.24739 120.42918 37 ft 124 kts 243°
2026-05-04 16:00 30.24454 120.42304 37 ft 38 kts 232°
2026-05-04 16:01 30.24321 120.42185 37 ft 8 kts 211°
2026-05-04 16:01 30.24302 120.42174 37 ft 3 kts 200°
2026-05-04 16:01 30.24269 120.42176 37 ft 5 kts 160°
2026-05-04 16:01 30.24248 120.42195 37 ft 0 kts 127°
2026-05-04 16:02 30.24241 120.42215 37 ft 5 kts 102°
2026-05-04 16:02 30.24259 120.42268 37 ft 10 kts 51°
2026-05-04 16:02 30.24275 120.42428 37 ft 12 kts 146°
2026-05-04 16:03 30.24200 120.42468 37 ft 11 kts 166°
2026-05-04 16:03 30.24125 120.42487 37 ft 10 kts 164°
2026-05-04 16:03 30.24069 120.42476 37 ft 6 kts 203°
2026-05-04 16:03 30.24057 120.42470 37 ft 0 kts 203°